RADUGA 11 [-]

Last updated on Oct. 25, 2020, 5:56 a.m. UTC

1 13669U 82113A   20298.24384390 -.00000176  00000-0  00000-0 0  9999
2 13669  13.1782 327.8015 0037291 239.9814  95.8092  0.97709896101384
UTC
Height (km)
Latitude
Longitude
Inclination
Orbital Period
UTC large
Height (km)
Speed (km/s)
/
Latitude / Longitude
Inclination (degrees)
Orbital Period (minutes)
Azimuth
Elevation
Range (km)
Doppler Factor
iOS Compass Heading
iOS Angle

Next 30 passes for location: Hong Kong

Rise time Rise Azimuth (degrees) Set time Set Azimuth (degrees) Duration Max altitude (degrees)

No matching passes for this satellites